Location: Newark
(46.7000°N, 60.6000°W)
Time: 02:55:52
(UTC+00:00)

A-11 Canister half - Pass Details

Date: 04 November 2020
Orbit: 1525 x 1683 km, 47.3° (Epoch: 23 November)

Event Time Altitude Azimuth Distance (km) Brightness Sun altitude
Rises 21:52:08 0° 289° (WNW) 4,739 12.7 -12.4°
Reaches altitude 10° 21:55:16 10° 287° (WNW) 3,737 12.1 -12.9°
Maximum altitude 22:04:27 62° 210° (SSW) 1,695 9.4 -14.5°
Drops below altitude 10° 22:13:31 10° 132° (SE) 3,687 10.6 -16.0°
Enters shadow 22:15:11 - 130° (SE) 4,216 10.9 -16.3°
Sets 22:16:35 0° 129° (SE) 4,672 - -16.6°
